Hourly Data Report for July 15, 2021

WINDSOR A
ONTARIO
Current Station Operator: NAVCAN

42°16'34.000" N
82°57'19.000" W
189.60 m
6139530
71538
YQG

Download Data

Hourly Data (July 2021)
Hourly Data Report for July 15, 2021
TIME
LST
Temp Definition
°C
Dew Point Definition
°C
Rel Hum Definition
%
Precip. Amount Definition
mm

Wind Dir Definition
10's deg

Wind Spd Definition
km/h
Visibility Definition
km
Stn Press Definition
kPa
Hmdx Definition


Wind Chill Definition


Weather Definition


00:00 21.9 20.6 92 0.0 20 11 16.1 99.62 30   LegendNANA
01:00 21.8 20.8 94 0.0 19 13 16.1 99.60 30   LegendNANA
02:00 21.2 20.5 96 0.0 19 13 16.1 99.58 29   LegendNANA
03:00 21.8 20.5 92 0.0 20 13 16.1 99.51 30   LegendNANA
04:00 21.7 20.4 92 0.0 19 13 16.1 99.45 30   LegendNANA
05:00 22.0 20.3 90 0.0 20 17 16.1 99.41 30   LegendNANA
06:00 22.2 20.3 89 0.0 20 21 16.1 99.36 30   LegendNANA
07:00 22.7 20.8 89 0.0 20 22 16.1 99.34 31   LegendNANA
08:00 23.9 21.2 85 0.0 21 28 16.1 99.29 32   LegendNANA
09:00 25.3 21.7 80 0.0 21 21 9.7 99.27 34   Haze
10:00 27.2 22.1 73 0.0 21 26 16.1 99.24 37   LegendNANA
11:00 27.5 21.3 69 0.0 23 30 16.1 99.26 36   LegendNANA
12:00 28.2 20.9 64 0.0 24 22 16.1 99.26 37   LegendNANA
13:00 28.9 21.5 64 0.0 22 26 16.1 99.22 38   LegendNANA
14:00 27.9 20.4 63 0.0 26 26 16.1 99.19 36   LegendNANA
15:00 27.1 22.3 74 1.8 24 15 16.1 99.13 37   LegendNANA
16:00 28.0 20.9 65 0.2 22 21 16.1 99.12 36   LegendNANA
17:00 25.6 21.8 79 0.0 19 24 16.1 99.14 35   LegendNANA
18:00 26.5 21.8 75 0.0 21 18 16.1 99.09 36   LegendNANA
19:00 26.5 21.6 74 0.0 21 18 16.1 99.11 35   LegendNANA
20:00 25.2 21.6 80 0.0 22 17 16.1 99.13 34   LegendNANA
21:00 23.6 21.2 86 0.0 23 11 16.1 99.24 32   LegendNANA
22:00 24.7 19.6 73 0.0 31 15 16.1 99.30 32   LegendNANA
23:00 24.0 19.5 75 0.0 32 13 16.1 99.32 31   LegendNANA

Notes on Data Quality.

Legend

  • E = Estimated
  • M = Missing
  • NA = Not Available*
  • [empty] = Indicates an unobserved value
Date modified: